[ hide orbit diagram ]
For accurate long-term ephemerides, please instead use our Horizons system.This orbit viewer was implemented using two-body methods, and hence should not be used for determining accurate long-term trajectories (over several years or decades) or planetary encounter circumstances.
Orbital Elements at Epoch 2459000.5 (2020-May-31.0) TDB
Reference: JPL 9 (heliocentric ecliptic J2000)
Element | Value | Uncertainty (1-sigma) | Units |
e | .03204947227108492 | 6.3558e-08 | |
a | 2.323905763409247 | 1.629e-08 | au |
q | 2.249425810084248 | 1.4765e-07 | au |
i | 6.482520377778117 | 7.2685e-06 | deg |
node | 199.1896606942626 | 4.3051e-05 | deg |
peri | 312.3463848626592 | 9.2808e-05 | deg |
M | 358.5338841000437 | 8.215e-05 | deg |
tp | 2459005.769774107872 (2020-Jun-05.26977411) | 0.00029528 | TDB |
period | 1293.97592570298 3.54 | 1.3605e-05 3.725e-08 | d yr |
n | .2782122857536335 | 2.9253e-09 | deg/d |
Q | 2.398385716734246 | 1.6812e-08 | au |
|
| | Orbit Determination Parameters
Additional Information
|
[ show covariance matrix ]
Physical Parameter Table
Parameter |
Symbol |
Value |
Units |
Sigma |
Reference |
Notes |
absolute magnitude |
H |
17.2 |
|
n/a |
MPO455187 |
|
|
295838 (2008 VS6) Discovered 2008-Nov-01 by Mt. Lemmon Survey at Mount Lemmon |
Reference: 20110912/Numbers.arc | Last Updated: 2011-09-14 |
|
[ show close-approach data ]
|